Home > Weather > Wichita > Past weeks

Flag for USA Weather for the Past 2 Weeks in Wichita, Kansas, USA

Now
59 °F

Passing clouds.


Feels Like: 59 °F
Forecast: 53 / 83 °F
Wind: 5 mph from South

Location: Wichita Mid-Continent Airport

Current Time: May 6, 2016 at 1:37:22 AM

Latest Report: May 6, 2016 at 12:53 AM


Visibility: 10 mi

Pressure: 30.03 "Hg

Humidity: 60%

Dew Point: 45 °F

Location of WichitaLocation

Historic Weather in Wichita — Graph

°F

Wichita Temperature Yesterday

Maximum temperature yesterday: 81 °F (at 4:53 PM)
Minimum temperature yesterday: 36 °F (at 11:53 AM)
Average temperature yesterday: 63 °F

High & Low Weather Summary for the Past Weeks

 TemperatureHumidityPressure
High82 °F (Apr 26, 1:53 PM)93% (Apr 21, 1:53 AM)30.19 "Hg (Apr 21, 1:53 AM)
Low36 °F (May 5, 11:53 AM)21% (May 4, 3:53 PM)29.42 "Hg (Apr 26, 4:53 PM)
Average61 °F65%29.88 "Hg
* Reported Apr 20 11:53 PM — May 5 11:53 PM, Wichita, Weather by CustomWeather, © 2016

Note: Actual official high and low records may vary slightly from our data, if they occured in-between our weather recording intervals... More about our weather records

Advertising

Wichita Weather History for the Previous 24 Hours

Scroll right to see more
 ConditionsComfort  
Time TempWeatherWind HumidityBarometerVisibility
11:53 PM
Thu, May 5
62 °FPassing clouds.5 mph54%30.06 "Hg10 mi
10:53 PM59 °FClear.No wind64%30.03 "Hg10 mi
9:53 PM65 °FClear.3 mph51%30.01 "Hg10 mi
8:53 PM70 °FPassing clouds.No wind42%29.99 "Hg10 mi
7:53 PM72 °FSunny.6 mph41%29.98 "Hg10 mi
6:53 PM79 °FPassing clouds.No wind24%29.98 "Hg10 mi
5:53 PM81 °FPassing clouds.3 mph22%30.00 "Hg10 mi
4:53 PM81 °FPassing clouds.3 mph21%30.01 "Hg10 mi
3:53 PM80 °FPassing clouds.No wind23%30.02 "Hg10 mi
2:53 PM79 °FSunny.7 mph27%30.05 "Hg10 mi
1:53 PM76 °FPassing clouds.3 mph26%30.06 "Hg10 mi
12:53 PM75 °FSunny.3 mph30%30.09 "Hg10 mi
11:53 AM36 °FSunny.5 mph89%30.13 "Hg10 mi
10:53 AM71 °FSunny.5 mph32%30.10 "Hg10 mi
9:53 AM66 °FSunny.3 mph42%30.11 "Hg10 mi
8:53 AM61 °FSunny.6 mph52%30.10 "Hg10 mi
7:53 AM53 °FSunny.6 mph66%30.09 "Hg10 mi
6:53 AM46 °FClear.No wind79%30.07 "Hg10 mi
5:53 AM48 °FClear.6 mph71%30.05 "Hg10 mi
4:53 AM50 °FClear.6 mph68%30.04 "Hg10 mi
3:53 AM49 °FClear.7 mph71%30.03 "Hg10 mi
2:53 AM50 °FClear.6 mph71%30.02 "Hg10 mi
1:53 AM50 °FClear.5 mph71%30.03 "Hg10 mi
Weather by CustomWeather, © 2016

See weather overviewHow to use our weather pages